Location: Hopville
(44.8032°N, 123.1329°W)
Time: 04:44:30
(UTC+00:00)

Meteor PRIRODA - Pass Details

Date: 24 January 2021
Orbit: 490 x 509 km, 97.6° (Epoch: 26 February)

Event Time Altitude Azimuth Distance (km) Brightness Sun altitude
Rises 14:20:39 0° 2° (N) 2,578 7.1 -14.0°
Reaches altitude 10° 14:22:54 10° 351° (N) 1,691 6.1 -13.6°
Maximum altitude 14:26:04 29° 290° (WNW) 928 4.4 -13.1°
Drops below altitude 10° 14:29:13 10° 229° (SW) 1,680 6.0 -12.5°
Sets 14:31:27 0° 218° (SW) 2,558 7.0 -12.1°
